Tyler, TX

8:32 PM CST on February 25, 2017 (GMT -0600)
Tyler Pounds

Weather History for KTYR - June, 2013

Change the Weather History Date:

Wednesday, June 5, 2013

  Actual Average Record
Temperature  
Mean Temperature 81 °F 78 °F  
Max Temperature 92 °F 87 °F 103 °F (2011)
Min Temperature 70 °F 69 °F 50 °F (1969)
Degree Days  
Heating Degree Days 0 0  
Month to date heating degree days 0 0  
Since 1 June heating degree days 0 0  
Since 1 July heating degree days 2013 2269  
Cooling Degree Days 16 13  
Month to date cooling degree days 66 61  
Year to date cooling degree days 463 430  
Since 1 June cooling degree days 66 61  
Growing Degree Days 30 (Base 50)    
Moisture  
Dew Point 67 °F    
Average Humidity 67    
Maximum Humidity 90    
Minimum Humidity 44    
Precipitation  
Precipitation 0.00 in 0.16 in 1.69 in (1981)
Month to date precipitation 0.12 0.76  
Year to date precipitation 14.16 19.69  
Snow  
Snow 0.00 in - - ()
Month to date snowfall 0.0  
Since 1 June snowfall 0.0  
Since 1 July snowfall 1.0  
Snow Depth 0.00 in    
Sea Level Pressure  
Sea Level Pressure 29.87 in    
Wind  
Wind Speed 5 mph (SSE)    
Max Wind Speed 20 mph    
Max Gust Speed 24 mph    
Visibility 8 miles    
Events      
T = Trace of Precipitation, MM = Missing Value Source: NWS Daily Summary

Daily Weather History Graph

Daily Weather History Graph

Search for Another Location

Airport or City:

Trip Planner

Search our weather history database for the weather conditions in past years. The results will help you decide how hot, cold, wet, or windy it might be!

Date:

Astronomy

Jun. 05, 2013 Rise Set
Actual Time 6:14 AM CDT 8:25 PM CDT
Civil Twilight 5:46 AM CDT 8:54 PM CDT
Nautical Twilight 5:12 AM CDT 9:28 PM CDT
Astronomical Twilight 4:35 AM CDT 10:05 PM CDT
Moon 4:11 AM CDT (6/5) 5:59 PM CDT (6/5)
Length of Visible Light 15h 07m
Length of Day
14h 11m
Waning Crescent, 8% of the Moon is Illuminated
Jun 5
Waning Crescent
Jun 8
New
Jun 16
First Quarter
Jun 23
Full
Jun 29
Last Quarter

Hourly Weather History & Observations

Time (CDT) Temp. Heat Index Dew Point Humidity Pressure Visibility Wind Dir Wind Speed Gust Speed Precip Events Conditions
12:53 AM 75.9 °F - 66.0 °F 71% 29.88 in 10.0 mi SSE 4.6 mph - N/A   Clear
1:53 AM 75.9 °F - 66.0 °F 71% 29.87 in 10.0 mi SSE 3.5 mph - N/A   Clear
2:53 AM 73.9 °F - 66.0 °F 76% 29.87 in 8.0 mi SSE 3.5 mph - N/A   Clear
3:53 AM 72.0 °F - 66.0 °F 81% 29.86 in 10.0 mi SE 5.8 mph - N/A   Clear
4:53 AM 71.1 °F - 66.0 °F 84% 29.86 in 5.0 mi SSE 4.6 mph - N/A   Haze
5:53 AM 70.0 °F - 66.0 °F 87% 29.87 in 10.0 mi South 5.8 mph - N/A   Clear
6:03 AM 69.8 °F - 66.2 °F 88% 29.90 in 1.8 mi South 3.5 mph - N/A   Clear
6:12 AM 69.8 °F - 66.2 °F 88% 29.90 in 3.0 mi South 3.5 mph - N/A   Clear
6:53 AM 71.1 °F - 66.9 °F 87% 29.90 in 3.0 mi Calm Calm - N/A   Clear
6:56 AM 71.6 °F - 66.2 °F 83% 29.92 in 1.8 mi Calm Calm - N/A   Haze
7:06 AM 73.4 °F - 66.2 °F 78% 29.93 in 3.0 mi Calm Calm - N/A   Haze
7:53 AM 77.0 °F - 68.0 °F 74% 29.91 in 6.0 mi North 3.5 mph - N/A   Haze
8:15 AM 75.2 °F - 68.0 °F 78% 29.93 in 1.8 mi Calm Calm - N/A   Haze
8:32 AM 78.8 °F - 68.0 °F 69% 29.93 in 3.0 mi WSW 6.9 mph - N/A   Haze
8:53 AM 78.1 °F - 68.0 °F 71% 29.91 in 10.0 mi WSW 5.8 mph - N/A   Clear
9:53 AM 82.0 °F 84.9 °F 68.0 °F 62% 29.91 in 10.0 mi SSW 6.9 mph - N/A   Clear
10:53 AM 81.0 °F 83.8 °F 68.0 °F 65% 29.96 in 10.0 mi North 5.8 mph - N/A   Mostly Cloudy
11:53 AM 86.0 °F 90.7 °F 70.0 °F 59% 29.94 in 10.0 mi NE 10.4 mph - N/A   Clear
12:53 PM 87.1 °F 90.6 °F 68.0 °F 53% 29.91 in 10.0 mi SE 8.1 mph - N/A   Clear
1:53 PM 89.1 °F 92.1 °F 66.9 °F 48% 29.91 in 10.0 mi ESE 4.6 mph - N/A   Scattered Clouds
2:53 PM 90.0 °F 93.6 °F 68.0 °F 48% 29.86 in 10.0 mi SSE 8.1 mph - N/A   Partly Cloudy
3:53 PM 90.0 °F 92.4 °F 66.0 °F 45% 29.84 in 10.0 mi SSW 10.4 mph - N/A   Clear
4:53 PM 91.0 °F 94.3 °F 66.9 °F 45% 29.79 in 10.0 mi South 12.7 mph - N/A   Partly Cloudy
5:53 PM 90.0 °F 91.7 °F 64.9 °F 43% 29.74 in 10.0 mi SSE 12.7 mph 24.2 mph N/A   Clear
6:53 PM 89.1 °F 92.1 °F 66.9 °F 48% 29.79 in 10.0 mi Variable 3.5 mph - N/A   Partly Cloudy
7:53 PM 88.0 °F 91.4 °F 68.0 °F 51% 29.79 in 10.0 mi Calm Calm - N/A   Partly Cloudy
8:53 PM 84.9 °F 88.8 °F 69.1 °F 59% 29.78 in 10.0 mi East 3.5 mph - N/A   Clear
9:53 PM 81.0 °F 84.4 °F 70.0 °F 69% 29.81 in 10.0 mi Calm Calm - N/A   Clear
10:53 PM 79.0 °F - 71.1 °F 77% 29.84 in 10.0 mi Calm Calm - N/A   Partly Cloudy
11:53 PM 79.0 °F - 70.0 °F 74% 29.85 in 10.0 mi NE 3.5 mph - N/A   Mostly Cloudy